Location: La Fredeussais
(48.1780°N, 1.3980°W)
Time: 09:42:24
(UTC+00:00)

Cosmos 2154 Rocket - Pass Details

Date: 09 May 2021
Orbit: 965 x 997 km, 82.9° (Epoch: 13 June)

Event Time Altitude Azimuth Distance (km) Brightness Sun altitude
Rises 21:48:17 0° 352° (N) 3,724 8.2 -17.8°
Reaches altitude 10° 21:50:52 10° 356° (N) 2,768 7.3 -18.0°
Maximum altitude 21:57:10 63° 78° (ENE) 1,095 4.1 -18.6°
Enters shadow 22:00:12 31° 148° (SSE) 1,643 4.6 -18.8°
